Find SPOT 3

NORAD ID: 22823 Int'l Des: 1993-061 Owner: CNES Country: F operational
LEOCIRCULARRETROGRADESSO

Live Position

Loading 3D Globe...

About SPOT 3

Description loading...

Upcoming Passes

Passes for default location (London). Set your location on the main map for personalized predictions.

Altitude History

Loading altitude history...

Two-Line Element Set

1 22823U 93061A 26105.88562348 .00000048 00000-0 43594-4 0 9995
2 22823 98.8616 169.8317 0017624 63.6375 296.6609 14.20076756685737
Epoch: Apr 15, 2026 • Age: 14 hours

Current Status

Altitude 826.8 km
Velocity 7.45 km/s
Sub-Earth Point 80.33°N, 92.51°E
Launch Date Sep 26, 1993
Age 32.5 years
Type earth observation

Technical Details

Classification Payload
Mass 1900.00 kg
Dry Mass 1750.00 kg
Total Mass 1900.00 kg
Length 4.50 m
Diameter 2.00 m
Span 8.20 m
Shape Box + Pan
Manufacturer MMST
Bus Type SPOT
Phase Status In Orbit
Owner/State CNES/F

Most Searched